Time,TemperatureF,DewpointF,PressureIn,WindDirection,WindDirectionDegrees,WindSpeedMPH,WindSpeedGustMPH,Humidity,HourlyPrecipIn,Conditions,Clouds,dailyrainin,SoftwareType,DateUTC
2013-05-08 00:02:00,64.0,46.6,30.02,SSE,159,2.0,5.0,53,0.00,,,0.00,meteohub,2013-05-08 05:02:00,
2013-05-08 00:07:00,63.9,46.4,30.02,SSE,150,2.0,5.0,53,0.00,,,0.00,meteohub,2013-05-08 05:07:00,
2013-05-08 00:12:00,63.7,46.2,30.02,SSE,160,3.0,5.0,53,0.00,,,0.00,meteohub,2013-05-08 05:12:00,
2013-05-08 00:17:00,63.7,47.3,30.02,SSE,159,1.0,4.0,55,0.00,,,0.00,meteohub,2013-05-08 05:17:00,
2013-05-08 00:22:00,63.5,47.5,30.02,SSE,161,2.0,5.0,56,0.00,,,0.00,meteohub,2013-05-08 05:22:00,
2013-05-08 00:27:00,63.5,47.1,30.02,SSE,158,2.0,7.0,55,0.00,,,0.00,meteohub,2013-05-08 05:27:00,
2013-05-08 00:32:00,63.3,47.3,30.01,South,173,1.0,7.0,56,0.00,,,0.00,meteohub,2013-05-08 05:32:00,
2013-05-08 00:37:00,63.3,47.3,30.01,SSE,166,0.0,7.0,56,0.00,,,0.00,meteohub,2013-05-08 05:37:00,
2013-05-08 00:42:00,63.1,47.1,30.01,SSE,159,2.0,6.0,56,0.00,,,0.00,meteohub,2013-05-08 05:42:00,
2013-05-08 00:47:00,63.1,47.1,30.01,SSE,161,2.0,6.0,56,0.00,,,0.00,meteohub,2013-05-08 05:47:00,
2013-05-08 00:52:00,63.0,46.9,30.01,SSE,163,3.0,6.0,56,0.00,,,0.00,meteohub,2013-05-08 05:52:00,
2013-05-08 00:57:00,63.0,46.9,30.01,SSE,151,4.0,6.0,56,0.00,,,0.00,meteohub,2013-05-08 05:57:00,
2013-05-08 01:02:00,63.0,46.6,30.01,South,177,3.0,6.0,55,0.00,,,0.00,meteohub,2013-05-08 06:02:00,
2013-05-08 01:07:00,63.0,46.9,30.01,SSE,155,2.0,7.0,56,0.00,,,0.00,meteohub,2013-05-08 06:07:00,
2013-05-08 01:12:00,62.6,47.1,30.01,SSE,153,3.0,7.0,57,0.00,,,0.00,meteohub,2013-05-08 06:12:00,
2013-05-08 01:17:00,62.2,46.8,30.01,SSE,168,3.0,7.0,57,0.00,,,0.00,meteohub,2013-05-08 06:17:00,
2013-05-08 01:22:00,62.2,46.8,30.01,South,169,3.0,6.0,57,0.00,,,0.00,meteohub,2013-05-08 06:22:00,
2013-05-08 01:27:00,62.2,46.8,30.01,SSE,158,2.0,6.0,57,0.00,,,0.00,meteohub,2013-05-08 06:27:00,
2013-05-08 01:32:00,62.2,46.8,30.01,SSE,159,3.0,6.0,57,0.00,,,0.00,meteohub,2013-05-08 06:32:00,
2013-05-08 01:37:00,62.2,46.8,30.01,SE,146,4.0,5.0,57,0.00,,,0.00,meteohub,2013-05-08 06:37:00,
2013-05-08 01:42:00,62.1,46.6,30.01,SSE,160,3.0,5.0,57,0.00,,,0.00,meteohub,2013-05-08 06:42:00,
2013-05-08 01:47:00,62.2,46.4,30.01,SSE,158,3.0,5.0,56,0.00,,,0.00,meteohub,2013-05-08 06:47:00,
2013-05-08 01:52:00,62.2,46.8,30.01,SSE,162,2.0,5.0,57,0.00,,,0.00,meteohub,2013-05-08 06:52:00,
2013-05-08 01:57:00,61.9,46.4,30.01,SSE,162,2.0,5.0,57,0.00,,,0.00,meteohub,2013-05-08 06:57:00,
2013-05-08 02:02:00,61.7,46.4,30.00,SSE,160,0.0,4.0,57,0.00,,,0.00,meteohub,2013-05-08 07:02:00,
2013-05-08 02:07:00,61.5,46.2,30.00,SSE,164,0.0,4.0,57,0.00,,,0.00,meteohub,2013-05-08 07:07:00,
2013-05-08 02:12:00,61.3,46.4,30.00,SSE,159,0.0,4.0,58,0.00,,,0.00,meteohub,2013-05-08 07:12:00,
2013-05-08 02:17:00,61.2,46.2,30.00,SSE,158,1.0,3.0,58,0.00,,,0.00,meteohub,2013-05-08 07:17:00,
2013-05-08 02:22:00,61.0,46.0,30.00,SSE,164,2.0,3.0,58,0.00,,,0.00,meteohub,2013-05-08 07:22:00,
2013-05-08 02:27:00,61.0,46.0,30.00,SSE,153,4.0,4.0,58,0.00,,,0.00,meteohub,2013-05-08 07:27:00,
2013-05-08 02:32:00,61.0,46.6,30.00,SSE,151,4.0,5.0,59,0.00,,,0.00,meteohub,2013-05-08 07:32:00,
2013-05-08 02:37:00,61.0,46.6,30.00,SSE,155,2.0,5.0,59,0.00,,,0.00,meteohub,2013-05-08 07:37:00,
2013-05-08 02:42:00,61.0,46.6,30.00,SSE,161,4.0,5.0,59,0.00,,,0.00,meteohub,2013-05-08 07:42:00,
2013-05-08 02:47:00,60.8,46.4,30.00,SSE,153,2.0,5.0,59,0.00,,,0.00,meteohub,2013-05-08 07:47:00,
2013-05-08 02:52:00,60.8,46.4,30.00,SSE,156,4.0,5.0,59,0.00,,,0.00,meteohub,2013-05-08 07:52:00,
2013-05-08 02:57:00,60.6,46.2,30.00,SSE,152,3.0,4.0,59,0.00,,,0.00,meteohub,2013-05-08 07:57:00,
2013-05-08 03:02:00,60.3,46.8,30.01,SSE,149,4.0,4.0,61,0.00,,,0.00,meteohub,2013-05-08 08:02:00,
2013-05-08 03:07:00,60.1,47.5,30.01,SE,143,3.0,6.0,63,0.00,,,0.00,meteohub,2013-05-08 08:07:00,
2013-05-08 03:12:00,59.7,47.5,30.01,SSE,147,4.0,6.0,64,0.00,,,0.00,meteohub,2013-05-08 08:12:00,
2013-05-08 03:17:00,59.7,47.5,30.01,SSE,152,3.0,6.0,64,0.00,,,0.00,meteohub,2013-05-08 08:17:00,
2013-05-08 03:22:00,59.7,47.1,30.01,SE,141,4.0,5.0,63,0.00,,,0.00,meteohub,2013-05-08 08:22:00,
2013-05-08 03:27:00,59.9,48.0,30.01,SSE,149,4.0,5.0,65,0.00,,,0.00,meteohub,2013-05-08 08:27:00,
2013-05-08 03:32:00,59.5,48.2,30.01,SSE,147,4.0,6.0,66,0.00,,,0.00,meteohub,2013-05-08 08:32:00,
2013-05-08 03:37:00,59.4,48.0,30.01,SSE,153,3.0,6.0,66,0.00,,,0.00,meteohub,2013-05-08 08:37:00,
2013-05-08 03:42:00,59.2,48.2,30.01,SSE,158,4.0,6.0,67,0.00,,,0.00,meteohub,2013-05-08 08:42:00,
2013-05-08 03:47:00,58.8,47.8,30.01,SSE,163,4.0,6.0,67,0.00,,,0.00,meteohub,2013-05-08 08:47:00,
2013-05-08 03:53:00,58.6,48.6,30.01,SSE,159,2.0,6.0,69,0.00,,,0.00,meteohub,2013-05-08 08:53:00,
2013-05-08 03:58:00,58.5,48.7,30.01,SSE,152,3.0,6.0,70,0.00,,,0.00,meteohub,2013-05-08 08:58:00,
2013-05-08 04:03:00,58.1,48.0,30.01,SSE,151,1.0,5.0,69,0.00,,,0.00,meteohub,2013-05-08 09:03:00,
2013-05-08 04:08:00,57.7,47.7,30.01,South,172,4.0,5.0,69,0.00,,,0.00,meteohub,2013-05-08 09:08:00,
2013-05-08 04:13:00,57.6,47.8,30.01,SSE,160,4.0,5.0,70,0.00,,,0.00,meteohub,2013-05-08 09:13:00,
2013-05-08 04:18:00,57.6,47.5,30.01,SSE,153,5.0,5.0,69,0.00,,,0.00,meteohub,2013-05-08 09:18:00,
2013-05-08 04:23:00,57.4,48.0,30.01,SSE,147,3.0,5.0,71,0.00,,,0.00,meteohub,2013-05-08 09:23:00,
2013-05-08 04:28:00,57.2,47.8,30.01,SSE,157,5.0,5.0,71,0.00,,,0.00,meteohub,2013-05-08 09:28:00,
2013-05-08 04:33:00,57.0,48.0,30.01,SSE,161,3.0,5.0,72,0.00,,,0.00,meteohub,2013-05-08 09:33:00,
2013-05-08 04:38:00,57.0,48.4,30.01,SSE,156,3.0,5.0,73,0.00,,,0.00,meteohub,2013-05-08 09:38:00,
2013-05-08 04:43:00,56.8,48.6,30.02,SSE,158,5.0,5.0,74,0.00,,,0.00,meteohub,2013-05-08 09:43:00,
2013-05-08 04:48:00,56.8,49.3,30.02,SSE,156,4.0,5.0,76,0.00,,,0.00,meteohub,2013-05-08 09:48:00,
2013-05-08 04:54:00,56.7,49.5,30.02,SSE,155,2.0,5.0,77,0.00,,,0.00,meteohub,2013-05-08 09:54:00,
2013-05-08 04:59:00,56.7,49.8,30.02,SSE,147,4.0,5.0,78,0.00,,,0.00,meteohub,2013-05-08 09:59:00,
2013-05-08 05:04:00,56.5,49.3,30.02,SSE,152,2.0,6.0,77,0.00,,,0.00,meteohub,2013-05-08 10:04:00,
2013-05-08 05:09:00,56.1,48.9,30.02,SSE,161,3.0,6.0,77,0.00,,,0.00,meteohub,2013-05-08 10:09:00,
2013-05-08 05:14:00,56.1,48.9,30.02,SSE,155,2.0,6.0,77,0.00,,,0.00,meteohub,2013-05-08 10:14:00,
2013-05-08 05:19:00,56.1,48.7,30.02,SSE,150,3.0,5.0,76,0.00,,,0.00,meteohub,2013-05-08 10:19:00,
2013-05-08 05:24:00,56.1,48.4,30.02,SSE,155,3.0,5.0,75,0.00,,,0.00,meteohub,2013-05-08 10:24:00,
2013-05-08 05:29:00,56.1,48.4,30.02,SSE,151,4.0,4.0,75,0.00,,,0.00,meteohub,2013-05-08 10:29:00,
2013-05-08 05:34:00,55.9,47.8,30.02,SSE,159,3.0,4.0,74,0.00,,,0.00,meteohub,2013-05-08 10:34:00,
2013-05-08 05:39:00,55.9,47.5,30.02,SSE,161,2.0,4.0,73,0.00,,,0.00,meteohub,2013-05-08 10:39:00,
2013-05-08 05:44:00,56.1,47.3,30.03,SSE,154,4.0,4.0,72,0.00,,,0.00,meteohub,2013-05-08 10:44:00,
2013-05-08 05:50:00,56.1,47.7,30.03,SSE,161,5.0,5.0,73,0.00,,,0.00,meteohub,2013-05-08 10:50:00,
2013-05-08 05:55:00,56.1,46.8,30.03,SSE,162,3.0,4.0,71,0.00,,,0.00,meteohub,2013-05-08 10:55:00,
2013-05-08 06:00:00,56.1,47.3,30.03,SSE,160,4.0,5.0,72,0.00,,,0.00,meteohub,2013-05-08 11:00:00,
2013-05-08 06:05:00,55.8,47.3,30.03,SSE,155,4.0,5.0,73,0.00,,,0.00,meteohub,2013-05-08 11:05:00,
2013-05-08 06:10:00,55.6,47.5,30.03,SSE,158,3.0,5.0,74,0.00,,,0.00,meteohub,2013-05-08 11:10:00,
2013-05-08 06:15:00,55.6,47.5,30.04,SSE,166,4.0,6.0,74,0.00,,,0.00,meteohub,2013-05-08 11:15:00,
2013-05-08 06:20:00,55.4,47.3,30.04,SSE,162,2.0,6.0,74,0.00,,,0.00,meteohub,2013-05-08 11:20:00,
2013-05-08 06:25:00,55.6,47.5,30.04,SSE,161,2.0,6.0,74,0.00,,,0.00,meteohub,2013-05-08 11:25:00,
2013-05-08 06:30:00,55.6,47.1,30.04,SSE,151,4.0,6.0,73,0.00,,,0.00,meteohub,2013-05-08 11:30:00,
2013-05-08 06:35:00,55.8,46.9,30.04,SSE,151,4.0,6.0,72,0.00,,,0.00,meteohub,2013-05-08 11:35:00,
2013-05-08 06:40:00,55.8,46.9,30.04,SSE,154,4.0,6.0,72,0.00,,,0.00,meteohub,2013-05-08 11:40:00,
2013-05-08 06:46:00,55.9,46.8,30.04,SSE,163,4.0,6.0,71,0.00,,,0.00,meteohub,2013-05-08 11:46:00,
2013-05-08 06:51:00,56.1,46.8,30.04,SSE,160,3.0,6.0,71,0.00,,,0.00,meteohub,2013-05-08 11:51:00,
2013-05-08 06:56:00,56.5,47.1,30.04,SSE,160,4.0,6.0,71,0.00,,,0.00,meteohub,2013-05-08 11:56:00,
2013-05-08 07:01:00,56.7,46.6,30.04,SSE,166,4.0,6.0,69,0.00,,,0.00,meteohub,2013-05-08 12:01:00,
2013-05-08 07:06:00,57.0,46.9,30.04,SSE,149,4.0,6.0,69,0.00,,,0.00,meteohub,2013-05-08 12:06:00,
2013-05-08 07:11:00,57.6,47.5,30.04,SSE,150,3.0,6.0,69,0.00,,,0.00,meteohub,2013-05-08 12:11:00,
2013-05-08 07:16:00,57.7,47.3,30.04,SSE,147,4.0,5.0,68,0.00,,,0.00,meteohub,2013-05-08 12:16:00,
2013-05-08 07:21:00,58.3,46.9,30.04,SSE,168,4.0,5.0,66,0.00,,,0.00,meteohub,2013-05-08 12:21:00,
2013-05-08 07:26:00,58.5,46.4,30.04,SSE,153,2.0,6.0,64,0.00,,,0.00,meteohub,2013-05-08 12:26:00,
2013-05-08 07:31:00,58.6,46.0,30.04,SSE,151,6.0,7.0,63,0.00,,,0.00,meteohub,2013-05-08 12:31:00,
2013-05-08 07:37:00,58.8,45.9,30.05,SE,146,2.0,7.0,62,0.00,,,0.00,meteohub,2013-05-08 12:37:00,
2013-05-08 07:42:00,59.2,46.2,30.05,SE,143,1.0,7.0,62,0.00,,,0.00,meteohub,2013-05-08 12:42:00,
2013-05-08 07:47:00,59.4,46.4,30.05,SSW,192,4.0,7.0,62,0.00,,,0.00,meteohub,2013-05-08 12:47:00,
2013-05-08 07:52:00,59.5,46.6,30.05,SSE,151,4.0,7.0,62,0.00,,,0.00,meteohub,2013-05-08 12:52:00,
2013-05-08 07:57:00,59.7,46.8,30.05,South,172,3.0,7.0,62,0.00,,,0.00,meteohub,2013-05-08 12:57:00,
2013-05-08 08:02:00,60.1,46.9,30.05,SE,139,2.0,7.0,62,0.00,,,0.00,meteohub,2013-05-08 13:02:00,
2013-05-08 08:07:00,60.6,46.6,30.05,SSE,153,3.0,6.0,60,0.00,,,0.00,meteohub,2013-05-08 13:07:00,
2013-05-08 08:12:00,61.0,46.6,30.05,SSE,151,3.0,6.0,59,0.00,,,0.00,meteohub,2013-05-08 13:12:00,
2013-05-08 08:17:00,61.3,46.9,30.05,SSE,160,4.0,6.0,59,0.00,,,0.00,meteohub,2013-05-08 13:17:00,
2013-05-08 08:22:00,61.7,46.8,30.05,SSE,150,5.0,6.0,58,0.00,,,0.00,meteohub,2013-05-08 13:22:00,
2013-05-08 08:27:00,62.1,47.1,30.05,SSE,166,4.0,6.0,58,0.00,,,0.00,meteohub,2013-05-08 13:27:00,
2013-05-08 08:32:00,62.4,46.9,30.05,South,170,2.0,6.0,57,0.00,,,0.00,meteohub,2013-05-08 13:32:00,
2013-05-08 08:37:00,63.1,47.1,30.05,SE,130,4.0,6.0,56,0.00,,,0.00,meteohub,2013-05-08 13:37:00,
2013-05-08 08:42:00,63.7,47.7,30.05,SE,137,2.0,6.0,56,0.00,,,0.00,meteohub,2013-05-08 13:42:00,
2013-05-08 08:47:00,64.2,47.3,30.05,SE,141,2.0,6.0,54,0.00,,,0.00,meteohub,2013-05-08 13:47:00,
2013-05-08 08:52:00,64.8,47.3,30.05,South,169,4.0,7.0,53,0.00,,,0.00,meteohub,2013-05-08 13:52:00,
2013-05-08 08:57:00,65.1,46.6,30.05,South,191,0.0,7.0,51,0.00,,,0.00,meteohub,2013-05-08 13:57:00,
2013-05-08 09:02:00,65.7,46.0,30.05,SSW,197,2.0,9.0,49,0.00,,,0.00,meteohub,2013-05-08 14:02:00,
2013-05-08 09:07:00,66.4,46.0,30.05,SE,131,3.0,9.0,48,0.00,,,0.00,meteohub,2013-05-08 14:07:00,
2013-05-08 09:12:00,66.9,46.0,30.05,SE,124,4.0,9.0,47,0.00,,,0.00,meteohub,2013-05-08 14:12:00,
2013-05-08 09:17:00,67.5,46.6,30.05,South,187,2.0,6.0,47,0.00,,,0.00,meteohub,2013-05-08 14:17:00,
2013-05-08 09:22:00,67.3,46.4,30.04,SSE,153,6.0,7.0,47,0.00,,,0.00,meteohub,2013-05-08 14:22:00,
2013-05-08 09:28:00,67.5,46.6,30.04,South,177,0.0,8.0,47,0.00,,,0.00,meteohub,2013-05-08 14:28:00,
2013-05-08 09:33:00,68.2,46.6,30.04,SSE,147,4.0,8.0,46,0.00,,,0.00,meteohub,2013-05-08 14:33:00,
2013-05-08 09:38:00,68.4,46.8,30.04,SSE,166,3.0,9.0,46,0.00,,,0.00,meteohub,2013-05-08 14:38:00,
2013-05-08 09:43:00,69.1,46.8,30.04,SE,135,5.0,9.0,45,0.00,,,0.00,meteohub,2013-05-08 14:43:00,
2013-05-08 09:48:00,69.4,47.1,30.04,SE,143,7.0,9.0,45,0.00,,,0.00,meteohub,2013-05-08 14:48:00,
2013-05-08 09:53:00,69.4,46.6,30.04,SE,135,5.0,7.0,44,0.00,,,0.00,meteohub,2013-05-08 14:53:00,
2013-05-08 09:58:00,69.6,46.8,30.04,SSE,155,5.0,8.0,44,0.00,,,0.00,meteohub,2013-05-08 14:58:00,
2013-05-08 10:03:00,70.2,47.8,30.04,SSE,163,1.0,8.0,45,0.00,,,0.00,meteohub,2013-05-08 15:03:00,
2013-05-08 10:08:00,70.7,47.7,30.04,SSE,157,1.0,8.0,44,0.00,,,0.00,meteohub,2013-05-08 15:08:00,
2013-05-08 10:13:00,71.8,47.5,30.04,South,177,3.0,7.0,42,0.00,,,0.00,meteohub,2013-05-08 15:13:00,
2013-05-08 10:18:00,72.3,46.6,30.04,South,182,0.0,7.0,40,0.00,,,0.00,meteohub,2013-05-08 15:18:00,
2013-05-08 10:24:00,73.0,47.3,30.04,SE,138,3.0,5.0,40,0.00,,,0.00,meteohub,2013-05-08 15:24:00,
2013-05-08 10:29:00,73.6,46.4,30.04,SE,143,0.0,5.0,38,0.00,,,0.00,meteohub,2013-05-08 15:29:00,
2013-05-08 10:34:00,72.9,48.4,30.04,NNE,18,0.0,4.0,42,0.00,,,0.00,meteohub,2013-05-08 15:34:00,
2013-05-08 10:39:00,72.7,48.2,30.04,NNE,14,3.0,4.0,42,0.00,,,0.00,meteohub,2013-05-08 15:39:00,
2013-05-08 10:44:00,72.9,47.8,30.04,NNE,25,3.0,4.0,41,0.00,,,0.00,meteohub,2013-05-08 15:44:00,
2013-05-08 10:49:00,73.0,48.0,30.04,NE,39,4.0,5.0,41,0.00,,,0.00,meteohub,2013-05-08 15:49:00,
2013-05-08 10:54:00,72.5,47.5,30.04,NE,40,3.0,6.0,41,0.00,,,0.00,meteohub,2013-05-08 15:54:00,
2013-05-08 10:59:00,72.3,47.3,30.04,ENE,62,3.0,6.0,41,0.00,,,0.00,meteohub,2013-05-08 15:59:00,
2013-05-08 11:04:00,72.1,47.8,30.04,NE,36,4.0,6.0,42,0.00,,,0.00,meteohub,2013-05-08 16:04:00,
2013-05-08 11:09:00,72.9,47.8,30.04,NNW,332,3.0,6.0,41,0.00,,,0.00,meteohub,2013-05-08 16:09:00,
2013-05-08 11:14:00,73.4,47.7,30.04,NNE,22,2.0,6.0,40,0.00,,,0.00,meteohub,2013-05-08 16:14:00,
2013-05-08 11:20:00,73.8,48.0,30.04,NW,309,5.0,6.0,40,0.00,,,0.00,meteohub,2013-05-08 16:20:00,
2013-05-08 11:25:00,73.6,47.1,30.04,NNE,12,2.0,5.0,39,0.00,,,0.00,meteohub,2013-05-08 16:25:00,
2013-05-08 11:30:00,73.9,47.5,30.04,NNE,31,1.0,6.0,39,0.00,,,0.00,meteohub,2013-05-08 16:30:00,
2013-05-08 11:35:00,74.7,47.3,30.04,ENE,73,4.0,6.0,38,0.00,,,0.00,meteohub,2013-05-08 16:35:00,
2013-05-08 11:40:00,73.6,46.4,30.03,ENE,58,4.0,6.0,38,0.00,,,0.00,meteohub,2013-05-08 16:40:00,
2013-05-08 11:45:00,73.2,46.8,30.03,NE,52,5.0,6.0,39,0.00,,,0.00,meteohub,2013-05-08 16:45:00,
2013-05-08 11:50:00,73.6,46.4,30.03,ENE,66,5.0,7.0,38,0.00,,,0.00,meteohub,2013-05-08 16:50:00,
2013-05-08 11:55:00,73.6,46.4,30.03,NE,54,4.0,7.0,38,0.00,,,0.00,meteohub,2013-05-08 16:55:00,
2013-05-08 12:00:00,73.8,47.3,30.03,ENE,62,6.0,8.0,39,0.00,,,0.00,meteohub,2013-05-08 17:00:00,
2013-05-08 12:05:00,74.5,46.6,30.03,ENE,58,6.0,8.0,37,0.00,,,0.00,meteohub,2013-05-08 17:05:00,
2013-05-08 12:10:00,73.8,45.9,30.03,ENE,60,5.0,8.0,37,0.00,,,0.00,meteohub,2013-05-08 17:10:00,
2013-05-08 12:16:00,73.8,45.9,30.03,ENE,58,3.0,8.0,37,0.00,,,0.00,meteohub,2013-05-08 17:16:00,
2013-05-08 12:21:00,74.7,45.1,30.03,NE,55,6.0,8.0,35,0.00,,,0.00,meteohub,2013-05-08 17:21:00,
2013-05-08 12:26:00,74.7,43.7,30.02,ENE,68,6.0,8.0,33,0.00,,,0.00,meteohub,2013-05-08 17:26:00,
2013-05-08 12:31:00,74.7,43.7,30.02,NE,39,6.0,8.0,33,0.00,,,0.00,meteohub,2013-05-08 17:31:00,
2013-05-08 12:36:00,74.7,41.2,30.02,NE,54,6.0,8.0,30,0.00,,,0.00,meteohub,2013-05-08 17:36:00,
2013-05-08 12:41:00,74.5,41.9,30.02,NE,56,7.0,8.0,31,0.00,,,0.00,meteohub,2013-05-08 17:41:00,
2013-05-08 12:46:00,74.1,42.4,30.02,NE,40,7.0,8.0,32,0.00,,,0.00,meteohub,2013-05-08 17:46:00,
2013-05-08 12:51:00,74.1,41.5,30.01,NE,51,5.0,8.0,31,0.00,,,0.00,meteohub,2013-05-08 17:51:00,
2013-05-08 12:56:00,74.1,40.6,30.01,ENE,67,5.0,8.0,30,0.00,,,0.00,meteohub,2013-05-08 17:56:00,
2013-05-08 13:01:00,74.1,41.5,30.01,NE,52,6.0,8.0,31,0.00,,,0.00,meteohub,2013-05-08 18:01:00,
2013-05-08 13:07:00,74.1,41.5,30.01,NE,45,5.0,7.0,31,0.00,,,0.00,meteohub,2013-05-08 18:07:00,
2013-05-08 13:12:00,74.1,41.5,30.01,ENE,69,7.0,7.0,31,0.00,,,0.00,meteohub,2013-05-08 18:12:00,
2013-05-08 13:17:00,74.5,41.0,30.01,NE,39,3.0,7.0,30,0.00,,,0.00,meteohub,2013-05-08 18:17:00,
2013-05-08 13:22:00,75.6,41.9,30.01,ENE,70,5.0,8.0,30,0.00,,,0.00,meteohub,2013-05-08 18:22:00,
2013-05-08 13:27:00,75.2,41.7,30.01,NE,54,5.0,8.0,30,0.00,,,0.00,meteohub,2013-05-08 18:27:00,
2013-05-08 13:32:00,75.4,42.6,30.01,East,92,1.0,8.0,31,0.00,,,0.00,meteohub,2013-05-08 18:32:00,
2013-05-08 13:37:00,75.9,41.4,30.01,ENE,61,5.0,7.0,29,0.00,,,0.00,meteohub,2013-05-08 18:37:00,
2013-05-08 13:42:00,76.3,41.7,30.01,NE,56,5.0,7.0,29,0.00,,,0.00,meteohub,2013-05-08 18:42:00,
2013-05-08 13:47:00,76.6,40.1,30.01,ENE,58,4.0,7.0,27,0.00,,,0.00,meteohub,2013-05-08 18:47:00,
2013-05-08 13:52:00,76.5,39.9,30.01,ENE,63,4.0,8.0,27,0.00,,,0.00,meteohub,2013-05-08 18:52:00,
2013-05-08 13:57:00,76.3,37.9,30.01,ENE,68,4.0,8.0,25,0.00,,,0.00,meteohub,2013-05-08 18:57:00,
2013-05-08 14:02:00,75.7,38.5,30.01,NE,55,5.0,8.0,26,0.00,,,0.00,meteohub,2013-05-08 19:02:00,
2013-05-08 14:07:00,75.7,39.4,30.01,NE,36,4.0,7.0,27,0.00,,,0.00,meteohub,2013-05-08 19:07:00,
2013-05-08 14:12:00,75.9,39.6,30.01,NE,37,4.0,7.0,27,0.00,,,0.00,meteohub,2013-05-08 19:12:00,
2013-05-08 14:17:00,75.9,40.5,30.01,ENE,69,3.0,7.0,28,0.00,,,0.00,meteohub,2013-05-08 19:17:00,
2013-05-08 14:22:00,76.5,41.0,30.00,NE,54,2.0,6.0,28,0.00,,,0.00,meteohub,2013-05-08 19:22:00,
2013-05-08 14:27:00,76.8,41.2,30.00,NE,34,2.0,6.0,28,0.00,,,0.00,meteohub,2013-05-08 19:27:00,
2013-05-08 14:32:00,77.4,40.8,30.00,East,87,6.0,6.0,27,0.00,,,0.00,meteohub,2013-05-08 19:32:00,
2013-05-08 14:37:00,77.7,41.0,30.00,NE,38,1.0,6.0,27,0.00,,,0.00,meteohub,2013-05-08 19:37:00,
2013-05-08 14:42:00,77.7,41.0,30.00,ENE,60,2.0,6.0,27,0.00,,,0.00,meteohub,2013-05-08 19:42:00,
2013-05-08 14:47:00,77.2,40.6,30.00,NE,49,3.0,7.0,27,0.00,,,0.00,meteohub,2013-05-08 19:47:00,
2013-05-08 14:52:00,76.6,41.2,30.00,NE,45,2.0,8.0,28,0.00,,,0.00,meteohub,2013-05-08 19:52:00,
2013-05-08 14:57:00,76.6,41.2,29.99,ENE,78,0.0,8.0,28,0.00,,,0.00,meteohub,2013-05-08 19:57:00,
2013-05-08 15:02:00,77.0,41.4,29.99,ESE,118,3.0,6.0,28,0.00,,,0.00,meteohub,2013-05-08 20:02:00,
2013-05-08 15:07:00,77.4,41.7,29.99,NE,52,2.0,6.0,28,0.00,,,0.00,meteohub,2013-05-08 20:07:00,
2013-05-08 15:12:00,77.9,42.3,29.99,NNE,31,0.0,7.0,28,0.00,,,0.00,meteohub,2013-05-08 20:12:00,
2013-05-08 15:17:00,77.9,42.3,29.99,ENE,65,7.0,7.0,28,0.00,,,0.00,meteohub,2013-05-08 20:17:00,
2013-05-08 15:22:00,76.8,42.1,29.99,East,89,8.0,9.0,29,0.00,,,0.00,meteohub,2013-05-08 20:22:00,
2013-05-08 15:27:00,77.2,43.3,29.99,NE,41,3.0,9.0,30,0.00,,,0.00,meteohub,2013-05-08 20:27:00,
2013-05-08 15:32:00,78.1,42.3,29.98,East,89,3.0,9.0,28,0.00,,,0.00,meteohub,2013-05-08 20:32:00,
2013-05-08 15:37:00,77.5,41.9,29.98,NE,56,6.0,9.0,28,0.00,,,0.00,meteohub,2013-05-08 20:37:00,
2013-05-08 15:42:00,76.8,42.1,29.98,West,262,5.0,9.0,29,0.00,,,0.00,meteohub,2013-05-08 20:42:00,
2013-05-08 15:47:00,77.4,43.5,29.98,WNW,296,2.0,9.0,30,0.00,,,0.00,meteohub,2013-05-08 20:47:00,
2013-05-08 15:52:00,77.7,43.0,29.98,NW,309,5.0,9.0,29,0.00,,,0.00,meteohub,2013-05-08 20:52:00,
2013-05-08 15:57:00,77.7,42.1,29.98,NE,56,4.0,8.0,28,0.00,,,0.00,meteohub,2013-05-08 20:57:00,
2013-05-08 16:02:00,78.1,42.3,29.97,East,91,4.0,8.0,28,0.00,,,0.00,meteohub,2013-05-08 21:02:00,
2013-05-08 16:07:00,79.0,43.2,29.97,NNE,14,2.0,7.0,28,0.00,,,0.00,meteohub,2013-05-08 21:07:00,
2013-05-08 16:12:00,79.0,42.1,29.97,NW,314,3.0,7.0,27,0.00,,,0.00,meteohub,2013-05-08 21:12:00,
2013-05-08 16:17:00,78.3,41.5,29.97,NW,316,2.0,7.0,27,0.00,,,0.00,meteohub,2013-05-08 21:17:00,
2013-05-08 16:22:00,78.1,41.4,29.97,WNW,289,2.0,7.0,27,0.00,,,0.00,meteohub,2013-05-08 21:22:00,
2013-05-08 16:27:00,78.1,42.3,29.97,NW,318,2.0,7.0,28,0.00,,,0.00,meteohub,2013-05-08 21:27:00,
2013-05-08 16:32:00,78.4,41.7,29.97,North,356,4.0,7.0,27,0.00,,,0.00,meteohub,2013-05-08 21:32:00,
2013-05-08 16:37:00,78.4,41.7,29.97,NW,316,6.0,7.0,27,0.00,,,0.00,meteohub,2013-05-08 21:37:00,
2013-05-08 16:42:00,78.4,41.7,29.97,NW,320,2.0,7.0,27,0.00,,,0.00,meteohub,2013-05-08 21:42:00,
2013-05-08 16:47:00,78.4,41.7,29.97,NW,326,2.0,7.0,27,0.00,,,0.00,meteohub,2013-05-08 21:47:00,
2013-05-08 16:52:00,78.3,41.5,29.97,NNW,330,1.0,7.0,27,0.00,,,0.00,meteohub,2013-05-08 21:52:00,
2013-05-08 16:57:00,78.4,42.6,29.97,NE,51,3.0,7.0,28,0.00,,,0.00,meteohub,2013-05-08 21:57:00,
2013-05-08 17:02:00,78.1,42.3,29.97,ENE,72,2.0,6.0,28,0.00,,,0.00,meteohub,2013-05-08 22:02:00,
2013-05-08 17:07:00,77.4,41.7,29.97,NE,43,4.0,7.0,28,0.00,,,0.00,meteohub,2013-05-08 22:07:00,
2013-05-08 17:12:00,77.4,41.7,29.97,NE,47,4.0,7.0,28,0.00,,,0.00,meteohub,2013-05-08 22:12:00,
2013-05-08 17:17:00,77.5,41.0,29.97,ENE,68,3.0,7.0,27,0.00,,,0.00,meteohub,2013-05-08 22:17:00,
2013-05-08 17:22:00,77.7,42.1,29.97,ENE,72,1.0,6.0,28,0.00,,,0.00,meteohub,2013-05-08 22:22:00,
2013-05-08 17:27:00,77.9,41.2,29.97,NE,50,3.0,6.0,27,0.00,,,0.00,meteohub,2013-05-08 22:27:00,
2013-05-08 17:32:00,78.1,41.4,29.97,NE,50,1.0,5.0,27,0.00,,,0.00,meteohub,2013-05-08 22:32:00,
2013-05-08 17:37:00,78.4,40.6,29.96,SW,218,3.0,4.0,26,0.00,,,0.00,meteohub,2013-05-08 22:37:00,
2013-05-08 17:42:00,78.6,40.8,29.96,SE,136,4.0,6.0,26,0.00,,,0.00,meteohub,2013-05-08 22:42:00,
2013-05-08 17:47:00,78.4,40.6,29.96,SE,137,0.0,6.0,26,0.00,,,0.00,meteohub,2013-05-08 22:47:00,
2013-05-08 17:52:00,78.4,40.6,29.96,WSW,252,0.0,6.0,26,0.00,,,0.00,meteohub,2013-05-08 22:52:00,
2013-05-08 17:57:00,78.6,40.8,29.96,South,191,2.0,6.0,26,0.00,,,0.00,meteohub,2013-05-08 22:57:00,
2013-05-08 18:02:00,78.6,40.8,29.96,South,177,2.0,5.0,26,0.00,,,0.00,meteohub,2013-05-08 23:02:00,
2013-05-08 18:07:00,78.6,40.8,29.96,South,177,0.0,5.0,26,0.00,,,0.00,meteohub,2013-05-08 23:07:00,
2013-05-08 18:12:00,78.4,40.6,29.96,South,169,3.0,5.0,26,0.00,,,0.00,meteohub,2013-05-08 23:12:00,
2013-05-08 18:17:00,78.4,41.7,29.96,South,182,1.0,5.0,27,0.00,,,0.00,meteohub,2013-05-08 23:17:00,
2013-05-08 18:22:00,78.3,41.5,29.96,SW,220,1.0,5.0,27,0.00,,,0.00,meteohub,2013-05-08 23:22:00,
2013-05-08 18:27:00,78.3,41.5,29.96,WSW,248,4.0,5.0,27,0.00,,,0.00,meteohub,2013-05-08 23:27:00,
2013-05-08 18:32:00,78.3,41.5,29.96,WSW,253,1.0,5.0,27,0.00,,,0.00,meteohub,2013-05-08 23:32:00,
2013-05-08 18:37:00,78.6,41.9,29.96,SSW,200,1.0,4.0,27,0.00,,,0.00,meteohub,2013-05-08 23:37:00,
2013-05-08 18:42:00,78.8,41.0,29.96,SSW,196,0.0,4.0,26,0.00,,,0.00,meteohub,2013-05-08 23:42:00,
2013-05-08 18:47:00,78.8,41.0,29.96,SSW,201,0.0,4.0,26,0.00,,,0.00,meteohub,2013-05-08 23:47:00,
2013-05-08 18:52:00,78.6,41.9,29.96,South,187,0.0,4.0,27,0.00,,,0.00,meteohub,2013-05-08 23:52:00,
2013-05-08 18:57:00,78.4,41.7,29.96,SSW,203,0.0,4.0,27,0.00,,,0.00,meteohub,2013-05-08 23:57:00,
2013-05-08 19:02:00,78.3,41.5,29.96,SSW,197,0.0,3.0,27,0.00,,,0.00,meteohub,2013-05-09 00:02:00,
2013-05-08 19:07:00,78.1,42.3,29.96,SSW,204,0.0,4.0,28,0.00,,,0.00,meteohub,2013-05-09 00:07:00,
2013-05-08 19:12:00,77.7,42.1,29.96,SSW,202,0.0,4.0,28,0.00,,,0.00,meteohub,2013-05-09 00:12:00,
2013-05-08 19:17:00,77.5,41.9,29.96,SSW,205,1.0,4.0,28,0.00,,,0.00,meteohub,2013-05-09 00:17:00,
2013-05-08 19:22:00,77.4,42.6,29.96,SSW,201,0.0,3.0,29,0.00,,,0.00,meteohub,2013-05-09 00:22:00,
2013-05-08 19:27:00,77.2,42.4,29.96,SSW,205,0.0,3.0,29,0.00,,,0.00,meteohub,2013-05-09 00:27:00,
2013-05-08 19:32:00,76.8,42.1,29.96,SSW,206,0.0,3.0,29,0.00,,,0.00,meteohub,2013-05-09 00:32:00,
2013-05-08 19:37:00,76.6,42.8,29.96,SSW,206,0.0,3.0,30,0.00,,,0.00,meteohub,2013-05-09 00:37:00,
2013-05-08 19:42:00,76.3,42.6,29.96,SSW,206,0.0,3.0,30,0.00,,,0.00,meteohub,2013-05-09 00:42:00,
2013-05-08 19:47:00,76.1,42.4,29.96,SSW,206,0.0,3.0,30,0.00,,,0.00,meteohub,2013-05-09 00:47:00,
2013-05-08 19:52:00,75.9,43.2,29.96,SSW,206,0.0,2.0,31,0.00,,,0.00,meteohub,2013-05-09 00:52:00,
2013-05-08 19:57:00,75.6,42.8,29.96,SSW,206,0.0,2.0,31,0.00,,,0.00,meteohub,2013-05-09 00:57:00,
2013-05-08 20:02:00,75.4,43.5,29.96,SSW,207,0.0,2.0,32,0.00,,,0.00,meteohub,2013-05-09 01:02:00,
2013-05-08 20:07:00,75.0,43.9,29.96,SSW,206,0.0,3.0,33,0.00,,,0.00,meteohub,2013-05-09 01:07:00,
2013-05-08 20:12:00,74.8,43.0,29.97,SW,216,2.0,3.0,32,0.00,,,0.00,meteohub,2013-05-09 01:12:00,
2013-05-08 20:17:00,74.7,42.8,29.97,WSW,247,0.0,3.0,32,0.00,,,0.00,meteohub,2013-05-09 01:17:00,
2013-05-08 20:22:00,74.5,43.5,29.97,WSW,256,0.0,3.0,33,0.00,,,0.00,meteohub,2013-05-09 01:22:00,
2013-05-08 20:27:00,74.1,43.9,29.97,WSW,256,0.0,4.0,34,0.00,,,0.00,meteohub,2013-05-09 01:27:00,
2013-05-08 20:32:00,73.9,43.9,29.97,WSW,246,0.0,4.0,34,0.00,,,0.00,meteohub,2013-05-09 01:32:00,
2013-05-08 20:37:00,73.8,44.4,29.97,WSW,245,1.0,2.0,35,0.00,,,0.00,meteohub,2013-05-09 01:37:00,
2013-05-08 20:42:00,73.6,44.2,29.97,SSW,199,0.0,3.0,35,0.00,,,0.00,meteohub,2013-05-09 01:42:00,
2013-05-08 20:47:00,73.4,44.1,29.97,SSW,201,0.0,3.0,35,0.00,,,0.00,meteohub,2013-05-09 01:47:00,
2013-05-08 20:52:00,73.2,43.9,29.97,SSW,199,1.0,3.0,35,0.00,,,0.00,meteohub,2013-05-09 01:52:00,
2013-05-08 20:57:00,73.0,44.4,29.97,South,187,0.0,3.0,36,0.00,,,0.00,meteohub,2013-05-09 01:57:00,
2013-05-08 21:02:00,72.9,45.1,29.98,SSW,210,0.0,2.0,37,0.00,,,0.00,meteohub,2013-05-09 02:02:00,
2013-05-08 21:07:00,72.7,45.0,29.98,SW,221,0.0,2.0,37,0.00,,,0.00,meteohub,2013-05-09 02:07:00,
2013-05-08 21:12:00,72.7,45.0,29.98,WSW,252,0.0,3.0,37,0.00,,,0.00,meteohub,2013-05-09 02:12:00,
2013-05-08 21:17:00,72.3,45.3,29.98,WSW,249,1.0,3.0,38,0.00,,,0.00,meteohub,2013-05-09 02:17:00,
2013-05-08 21:22:00,72.3,45.3,29.98,WSW,243,0.0,3.0,38,0.00,,,0.00,meteohub,2013-05-09 02:22:00,
2013-05-08 21:27:00,72.1,45.9,29.98,WSW,247,1.0,3.0,39,0.00,,,0.00,meteohub,2013-05-09 02:27:00,
2013-05-08 21:32:00,72.0,45.7,29.98,WSW,249,0.0,2.0,39,0.00,,,0.00,meteohub,2013-05-09 02:32:00,
2013-05-08 21:37:00,72.0,46.4,29.98,SSW,199,2.0,2.0,40,0.00,,,0.00,meteohub,2013-05-09 02:37:00,
2013-05-08 21:42:00,71.8,46.2,29.98,SSW,194,2.0,3.0,40,0.00,,,0.00,meteohub,2013-05-09 02:42:00,
2013-05-08 21:47:00,71.6,46.0,29.98,SSW,200,0.0,3.0,40,0.00,,,0.00,meteohub,2013-05-09 02:47:00,
2013-05-08 21:52:00,71.4,45.9,29.98,SSW,194,2.0,3.0,40,0.00,,,0.00,meteohub,2013-05-09 02:52:00,
2013-05-08 21:57:00,71.2,46.4,29.98,South,191,2.0,3.0,41,0.00,,,0.00,meteohub,2013-05-09 02:57:00,
2013-05-08 22:02:00,71.1,47.5,29.98,South,187,0.0,3.0,43,0.00,,,0.00,meteohub,2013-05-09 03:02:00,
2013-05-08 22:07:00,70.5,47.5,29.98,South,177,2.0,3.0,44,0.00,,,0.00,meteohub,2013-05-09 03:07:00,
2013-05-08 22:12:00,70.3,47.5,29.98,South,177,1.0,3.0,44,0.00,,,0.00,meteohub,2013-05-09 03:12:00,
2013-05-08 22:17:00,70.3,47.5,29.98,South,177,1.0,3.0,44,0.00,,,0.00,meteohub,2013-05-09 03:17:00,
2013-05-08 22:22:00,70.2,47.8,29.98,South,177,1.0,2.0,45,0.00,,,0.00,meteohub,2013-05-09 03:22:00,
2013-05-08 22:27:00,70.2,47.8,29.98,South,177,2.0,2.0,45,0.00,,,0.00,meteohub,2013-05-09 03:27:00,
2013-05-08 22:32:00,70.0,48.2,29.98,South,177,2.0,2.0,46,0.00,,,0.00,meteohub,2013-05-09 03:32:00,
2013-05-08 22:37:00,70.0,48.7,29.98,SE,141,3.0,3.0,47,0.00,,,0.00,meteohub,2013-05-09 03:37:00,
2013-05-08 22:42:00,69.6,49.1,29.98,ESE,110,6.0,6.0,48,0.00,,,0.00,meteohub,2013-05-09 03:42:00,
2013-05-08 22:47:00,69.3,49.3,29.98,SE,140,3.0,6.0,49,0.00,,,0.00,meteohub,2013-05-09 03:47:00,
2013-05-08 22:52:00,69.3,49.8,29.98,SSE,148,2.0,6.0,50,0.00,,,0.00,meteohub,2013-05-09 03:52:00,
2013-05-08 22:57:00,69.3,49.8,29.98,SE,141,4.0,7.0,50,0.00,,,0.00,meteohub,2013-05-09 03:57:00,
2013-05-08 23:01:00,68.7,49.3,29.98,SSE,148,10.0,10.0,50,0.00,,,0.00,meteohub,2013-05-09 04:01:00,
2013-05-08 23:02:00,68.5,49.1,29.98,SE,139,6.0,7.0,50,0.00,,,0.00,meteohub,2013-05-09 04:02:00,
2013-05-08 23:04:00,68.5,49.1,29.98,SE,141,4.0,7.0,50,0.00,,,0.00,meteohub,2013-05-09 04:04:00,
2013-05-08 23:09:00,68.2,49.3,29.98,SE,137,3.0,10.0,51,0.00,,,0.00,meteohub,2013-05-09 04:09:00,
2013-05-08 23:14:00,68.0,49.3,29.98,SE,125,4.0,10.0,51,0.00,,,0.00,meteohub,2013-05-09 04:14:00,
2013-05-08 23:20:00,67.6,48.9,29.98,SE,143,8.0,10.0,51,0.00,,,0.00,meteohub,2013-05-09 04:20:00,
2013-05-08 23:25:00,67.6,49.5,29.98,SSE,164,5.0,8.0,52,0.00,,,0.00,meteohub,2013-05-09 04:25:00,
2013-05-08 23:30:00,67.5,49.8,29.98,SSE,165,5.0,10.0,53,0.00,,,0.00,meteohub,2013-05-09 04:30:00,
2013-05-08 23:35:00,66.9,49.3,29.98,SE,146,3.0,10.0,53,0.00,,,0.00,meteohub,2013-05-09 04:35:00,
2013-05-08 23:40:00,66.7,49.1,29.97,SSE,156,1.0,10.0,53,0.00,,,0.00,meteohub,2013-05-09 04:40:00,
2013-05-08 23:45:00,66.6,48.9,29.97,SSE,148,4.0,7.0,53,0.00,,,0.00,meteohub,2013-05-09 04:45:00,
2013-05-08 23:50:00,66.6,49.5,29.97,SE,145,2.0,6.0,54,0.00,,,0.00,meteohub,2013-05-09 04:50:00,
2013-05-08 23:55:00,66.4,49.6,29.97,SSE,161,3.0,6.0,55,0.00,,,0.00,meteohub,2013-05-09 04:55:00,